GW1454 Weather Reports


Display with metric or nautical units.
time (UTC)temp
F
wind
direction
speed
MPH
gust
MPH
rain 1hr
in
rain 24hr
in
rain mn
in
humidity
%
barometer
mb
20260906030059 70 0 0.0 0.0 0.00 0.28 0.28 96 1012.8
20260906025546 70 0 0.0 0.0 0.00 0.28 0.28 96 1012.7
20260906025046 70 0 0.0 0.0 0.00 0.28 0.28 96 1012.8
20260906024618 70 0 0.0 0.0 0.00 0.28 0.28 95 1012.8
20260906024046 70 0 0.0 0.0 0.00 0.28 0.28 95 1012.7
20260906023546 70 0 0.0 0.0 0.00 0.28 0.28 95 1012.6
20260906023104 70 0 0.0 0.0 0.00 0.28 0.28 95 1012.5
20260906022545 70 0 0.0 0.0 0.00 0.28 0.28 95 1012.7
20260906022045 70 0 0.0 0.0 0.00 0.28 0.28 95 1012.5
20260906021603 70 0 0.0 0.0 0.00 0.28 0.28 95 1012.4
20260906021045 70 0 0.0 0.0 0.00 0.28 0.28 95 1012.6
20260906020548 70 0 0.0 0.0 0.00 0.28 0.28 95 1012.7
20260906020105 70 0 0.0 0.0 0.00 0.28 0.28 95 1012.7
20260906015545 71 0 0.0 0.0 0.00 0.28 0.28 95 1012.7
20260906015046 71 0 0.0 0.0 0.00 0.28 0.28 94 1012.5
20260906014611 71 0 0.0 0.0 0.00 0.28 0.28 95 1012.5
20260906014045 71 0 0.0 0.0 0.00 0.28 0.28 94 1012.5
20260906013545 71 0 0.0 0.0 0.00 0.28 0.28 94 1012.5
20260906013105 71 0 0.0 0.0 0.00 0.28 0.28 94 1012.5
20260906012547 71 0 0.0 0.0 0.00 0.28 0.28 94 1012.4
20260906012044 71 0 0.0 0.0 0.00 0.28 0.28 94 1012.2
20260906011602 71 0 0.0 0.0 0.00 0.28 0.28 93 1012.1
20260906011045 71 0 0.0 0.0 0.00 0.28 0.28 93 1012.3
20260906010545 71 0 0.0 0.0 0.00 0.28 0.28 93 1012.3
20260906010054 71 0 0.0 0.0 0.00 0.28 0.28 93 1012.3
20260906005546 71 0 0.0 0.0 0.00 0.28 0.28 93 1012.3
20260906005045 71 0 0.0 0.0 0.00 0.28 0.28 93 1012.3
20260906004601 71 0 0.0 0.0 0.00 0.28 0.28 92 1012.2
20260906004045 71 0 0.0 0.0 0.00 0.28 0.28 92 1012.2
20260906003545 71 0 0.0 0.0 0.00 0.28 0.28 92 1012.0
20260906003105 72 0 0.0 0.0 0.00 0.28 0.28 92 1012.1
20260906002546 72 0 0.0 0.0 0.00 0.28 0.28 91 1012.1
20260906002047 72 0 0.0 0.0 0.00 0.28 0.28 91 1012.1
20260906001553 72 0 0.0 0.0 0.00 0.28 0.28 91 1012.0
20260906001046 73 0 0.0 0.0 0.00 0.28 0.28 91 1012.0
20260906000545 73 0 0.0 0.0 0.00 0.28 0.28 90 1011.9
20260905235549 73 0 0.0 0.0 0.00 0.28 0.28 90 1011.9
20260905235045 73 0 0.0 0.0 0.00 0.28 0.28 90 1011.7
20260905234612 74 0 0.0 0.0 0.00 0.28 0.28 89 1011.7
20260905234048 74 0 0.0 0.0 0.00 0.28 0.28 89 1011.5
20260905233546 74 0 0.0 1.0 0.00 0.28 0.28 87 1011.3
20260905233054 74 0 0.0 1.0 0.00 0.28 0.28 88 1011.5
20260905232545 75 0 0.0 1.0 0.00 0.28 0.28 87 1011.4
20260905232046 75 0 0.0 2.0 0.00 0.28 0.28 87 1011.4
20260905231557 75 0 0.0 2.0 0.00 0.28 0.28 86 1011.3
20260905231045 76 0 0.0 1.0 0.00 0.28 0.28 86 1011.3
20260905230545 76 0 0.0 2.0 0.00 0.28 0.28 85 1011.2
20260905230130 77 0 0.0 2.0 0.00 0.28 0.28 84 1011.2
20260905225547 77 0 0.0 1.0 0.00 0.28 0.28 83 1011.3
20260905225045 77 0 0.0 2.0 0.00 0.28 0.28 82 1011.5
20260905224556 77 0 0.0 2.0 0.00 0.28 0.28 82 1011.5
20260905224046 78 0 0.0 2.0 0.00 0.28 0.28 81 1011.5
20260905223545 78 0 0.0 2.0 0.00 0.28 0.28 79 1011.5
20260905223109 78 0 0.0 2.0 0.00 0.28 0.28 79 1011.6
20260905222546 79 104 0.0 2.0 0.00 0.28 0.28 80 1011.6
20260905222045 78 0 0.0 2.0 0.00 0.28 0.28 80 1011.6
20260905221556 78 140 0.0 2.0 0.00 0.28 0.28 81 1011.8
20260905221048 78 0 0.0 2.0 0.00 0.28 0.28 81 1011.7
20260905220545 77 145 0.0 2.0 0.00 0.28 0.28 82 1012.0
20260905220052 76 0 0.0 2.0 0.00 0.28 0.28 83 1012.0
20260905215545 76 145 1.0 3.0 0.00 0.28 0.28 82 1011.9
20260905215047 77 142 1.0 3.0 0.00 0.28 0.28 83 1012.0
20260905214559 77 126 0.0 2.0 0.00 0.28 0.28 85 1012.0
20260905214045 76 0 0.0 2.0 0.00 0.28 0.28 86 1012.0
20260905213546 76 0 0.0 1.0 0.00 0.28 0.28 86 1012.0
20260905213103 76 0 0.0 1.0 0.00 0.28 0.28 86 1012.0
20260905212545 76 0 0.0 1.0 0.00 0.28 0.28 87 1012.2
20260905212045 76 0 0.0 2.0 0.00 0.28 0.28 86 1012.1
20260905211605 76 110 0.0 3.0 0.00 0.28 0.28 86 1012.3
20260905211045 76 0 0.0 5.0 0.00 0.28 0.28 85 1012.1
20260905210545 77 0 2.0 5.0 0.00 0.28 0.28 84 1012.4
20260905210058 77 66 1.0 5.0 0.00 0.28 0.28 86 1012.4
20260905205545 77 82 1.0 5.0 0.00 0.28 0.28 85 1012.5
20260905205046 76 69 1.0 5.0 0.00 0.28 0.28 89 1012.3
20260905204605 75 76 0.0 6.0 0.00 0.28 0.28 90 1012.3
20260905204045 75 133 2.0 6.0 0.00 0.28 0.28 92 1012.1
20260905203548 74 0 0.0 4.0 0.00 0.28 0.28 94 1012.0
20260905203102 74 0 0.0 0.0 0.00 0.28 0.28 94 1011.6
20260905202545 73 0 0.0 2.0 0.00 0.28 0.28 95 1011.4
20260905202046 73 0 0.0 2.0 0.00 0.28 0.28 95 1011.2
20260905201555 73 217 0.0 2.0 0.00 0.28 0.28 94 1011.3
20260905201046 73 0 0.0 1.0 0.00 0.28 0.28 95 1011.7
20260905200545 72 0 0.0 1.0 0.00 0.28 0.28 95 1011.9
20260905200109 72 113 0.0 1.0 0.00 0.28 0.28 95 1011.9
20260905195546 72 0 0.0 0.0 0.00 0.28 0.28 95 1012.2
20260905195049 72 0 0.0 0.0 0.00 0.28 0.28 95 1012.5
20260905194602 71 0 0.0 0.0 0.00 0.28 0.28 95 1012.3
20260905194045 71 0 0.0 0.0 0.00 0.28 0.28 95 1012.4
20260905193544 71 0 0.0 0.0 0.05 0.28 0.28 94 1012.6
20260905193114 71 0 0.0 1.0 0.28 0.28 0.28 94 1012.5
20260905192547 71 0 0.0 2.0 0.28 0.28 0.28 93 1012.3
20260905192048 71 159 1.0 2.0 0.28 0.28 0.28 93 1012.4
20260905191605 71 0 1.0 4.0 0.28 0.28 0.28 93 1012.1
20260905191045 71 23 0.0 4.0 0.28 0.28 0.28 93 1012.1
20260905190546 71 277 2.0 3.0 0.28 0.28 0.28 93 1012.0
20260905185546 71 0 0.0 3.0 0.28 0.28 0.28 90 1011.5
20260905185045 71 110 0.0 4.0 0.28 0.28 0.28 89 1011.8
20260905184604 72 0 1.0 12.0 0.28 0.28 0.28 86 1012.3
20260905184045 74 96 2.0 22.0 0.28 0.28 0.28 83 1012.2
20260905183546 78 284 6.0 24.0 0.21 0.21 0.21 77 1012.9
20260905183058 87 133 7.0 24.0 0.00 0.00 0.00 65 1012.8
20260905182545 89 0 0.0 1.0 0.00 0.00 0.00 66 1011.6
20260905182046 90 0 0.0 2.0 0.00 0.00 0.00 65 1011.5
20260905181552 91 0 0.0 3.0 0.00 0.00 0.00 62 1011.8
20260905181050 91 0 0.0 4.0 0.00 0.00 0.00 59 1011.7
20260905180546 92 167 0.0 6.0 0.00 0.00 0.00 59 1011.8
20260905175545 94 94 2.0 8.0 0.00 0.00 0.00 56 1012.3
20260905175045 94 51 1.0 8.0 0.00 0.00 0.00 56 1012.2
20260905174605 94 157 1.0 4.0 0.00 0.00 0.00 57 1012.1
20260905174046 93 0 1.0 7.0 0.00 0.00 0.00 57 1012.1
20260905173546 94 136 1.0 7.0 0.00 0.00 0.00 56 1012.2
20260905173105 94 102 1.0 8.0 0.00 0.00 0.00 56 1012.4
20260905172555 94 179 3.0 8.0 0.00 0.00 0.00 55 1012.6
20260905172046 93 142 0.0 8.0 0.00 0.00 0.00 58 1012.8
20260905171554 93 73 3.0 8.0 0.00 0.00 0.00 57 1012.8
20260905171045 92 0 3.0 8.0 0.00 0.00 0.00 58 1013.0
20260905170545 92 120 4.0 8.0 0.00 0.00 0.00 58 1013.1
20260905165546 92 67 2.0 8.0 0.00 0.00 0.00 59 1013.2
20260905165045 91 132 3.0 8.0 0.00 0.00 0.00 61 1013.3
20260905164554 92 209 3.0 8.0 0.00 0.00 0.00 60 1013.2
20260905164046 92 119 3.0 8.0 0.00 0.00 0.00 59 1013.3
20260905163545 92 104 2.0 6.0 0.00 0.00 0.00 61 1013.2
20260905163056 92 124 2.0 6.0 0.00 0.00 0.00 60 1013.4
20260905162549 92 243 2.0 7.0 0.00 0.00 0.00 60 1013.4
20260905162047 92 0 2.0 7.0 0.00 0.00 0.00 61 1013.5
20260905161552 91 109 1.0 5.0 0.00 0.00 0.00 62 1013.6
20260905161045 91 182 1.0 7.0 0.00 0.00 0.00 63 1013.6
20260905160546 91 160 3.0 7.0 0.00 0.00 0.00 62 1013.6
20260905160104 91 184 1.0 6.0 0.00 0.00 0.00 63 1013.7
20260905155546 91 91 1.0 6.0 0.00 0.00 0.00 63 1013.7
20260905155044 90 99 1.0 8.0 0.00 0.00 0.00 62 1013.8
20260905154606 90 0 1.0 9.0 0.00 0.00 0.00 63 1013.8
20260905154049 89 70 2.0 9.0 0.00 0.00 0.00 63 1013.9
20260905153546 89 68 2.0 9.0 0.00 0.00 0.00 63 1013.9
20260905153053 89 144 1.0 9.0 0.00 0.00 0.00 64 1013.9
20260905152545 89 101 1.0 7.0 0.00 0.00 0.00 65 1013.8
20260905152045 88 164 2.0 9.0 0.00 0.00 0.00 66 1013.8
20260905151559 88 96 2.0 9.0 0.00 0.00 0.00 67 1013.9
20260905151045 88 67 2.0 9.0 0.00 0.00 0.00 66 1014.0
20260905150548 88 55 3.0 9.0 0.00 0.00 0.00 66 1014.0
20260905150105 87 0 2.0 9.0 0.00 0.00 0.00 67 1014.1
20260905145545 87 127 2.0 8.0 0.00 0.00 0.00 68 1014.2
20260905145045 87 0 1.0 8.0 0.00 0.00 0.00 70 1014.2
20260905144552 86 144 2.0 8.0 0.00 0.00 0.00 70 1014.2
20260905144046 86 126 3.0 6.0 0.00 0.00 0.00 70 1014.3
20260905143546 86 146 1.0 5.0 0.00 0.00 0.00 71 1014.2
20260905143105 86 111 1.0 5.0 0.00 0.00 0.00 72 1014.1
20260905142545 85 84 0.0 5.0 0.00 0.00 0.00 71 1014.1
20260905142045 85 55 2.0 4.0 0.00 0.00 0.00 72 1014.1
20260905141603 85 0 0.0 6.0 0.00 0.00 0.00 74 1014.0
20260905141045 85 92 1.0 6.0 0.00 0.00 0.00 73 1014.0
20260905140546 85 109 2.0 4.0 0.00 0.00 0.00 72 1013.9
20260905140104 84 124 0.0 4.0 0.00 0.00 0.00 73 1014.0
20260905135545 84 107 1.0 4.0 0.00 0.00 0.00 73 1013.9
20260905135044 84 80 2.0 4.0 0.00 0.00 0.00 75 1013.9
20260905134601 84 82 0.0 3.0 0.00 0.00 0.00 76 1013.9
20260905134046 83 99 0.0 4.0 0.00 0.00 0.00 77 1013.8
20260905133545 82 103 1.0 4.0 0.00 0.00 0.00 77 1014.1
20260905133056 82 81 0.0 4.0 0.00 0.00 0.00 78 1014.0
20260905132547 81 0 1.0 4.0 0.00 0.00 0.00 80 1013.9
20260905132046 80 0 1.0 2.0 0.00 0.00 0.00 81 1014.0
20260905131602 80 126 0.0 2.0 0.00 0.00 0.00 81 1014.2
20260905131046 80 0 0.0 1.0 0.00 0.00 0.00 80 1014.1
20260905130546 80 0 0.0 0.0 0.00 0.00 0.00 83 1014.2
20260905125545 79 0 0.0 1.0 0.00 0.00 0.00 82 1014.3
20260905125046 79 0 0.0 1.0 0.00 0.00 0.00 82 1014.3
20260905124603 79 0 0.0 0.0 0.00 0.00 0.00 83 1014.4
20260905124046 78 0 0.0 0.0 0.00 0.00 0.00 84 1014.5
20260905123545 77 0 0.0 0.0 0.00 0.00 0.00 86 1014.5
20260905123058 76 0 0.0 0.0 0.00 0.00 0.00 87 1014.3
20260905122547 76 0 0.0 0.0 0.00 0.00 0.00 88 1014.4
20260905122047 75 0 0.0 1.0 0.00 0.00 0.00 90 1014.4
20260905121600 74 0 0.0 1.0 0.00 0.00 0.00 91 1014.5
20260905121046 73 0 0.0 1.0 0.00 0.00 0.00 92 1014.3
20260905120546 73 0 0.0 0.0 0.00 0.00 0.00 94 1014.4
20260905120105 72 0 0.0 0.0 0.00 0.00 0.00 95 1014.4
20260905115548 71 0 0.0 0.0 0.00 0.00 0.00 95 1014.3
20260905115046 71 0 0.0 0.0 0.00 0.00 0.00 96 1014.3
20260905114602 70 0 0.0 0.0 0.00 0.00 0.00 96 1014.2
20260905114045 70 0 0.0 0.0 0.00 0.00 0.00 96 1014.1
20260905113545 69 0 0.0 0.0 0.00 0.00 0.00 96 1014.0
20260905113109 69 0 0.0 0.0 0.00 0.00 0.00 95 1014.0
20260905112546 69 0 0.0 0.0 0.00 0.00 0.00 95 1013.9
20260905112046 69 0 0.0 0.0 0.00 0.00 0.00 95 1013.9
20260905111554 69 0 0.0 0.0 0.00 0.00 0.00 95 1013.7
20260905111046 69 0 0.0 0.0 0.00 0.00 0.00 95 1013.8
20260905110545 69 0 0.0 0.0 0.00 0.00 0.00 95 1013.8
20260905105545 69 0 0.0 0.0 0.00 0.00 0.00 95 1013.7
20260905105049 69 0 0.0 0.0 0.00 0.00 0.00 95 1013.6
20260905104559 69 0 0.0 0.0 0.00 0.00 0.00 95 1013.5
20260905104045 69 0 0.0 0.0 0.00 0.00 0.00 95 1013.5
20260905103546 69 0 0.0 0.0 0.00 0.00 0.00 95 1013.6
20260905103104 69 0 0.0 0.0 0.00 0.00 0.00 95 1013.6
20260905102546 69 0 0.0 0.0 0.00 0.00 0.00 95 1013.5
20260905102046 69 0 0.0 0.0 0.00 0.00 0.00 94 1013.4
20260905101601 70 0 0.0 0.0 0.00 0.00 0.00 94 1013.5
20260905101045 70 0 0.0 0.0 0.00 0.00 0.00 94 1013.4
20260905100546 70 0 0.0 0.0 0.00 0.00 0.00 94 1013.3
20260905095545 70 0 0.0 0.0 0.00 0.00 0.00 94 1013.3
20260905095046 70 0 0.0 0.0 0.00 0.00 0.00 93 1013.4
20260905094553 70 0 0.0 0.0 0.00 0.00 0.00 93 1013.3
20260905094049 70 0 0.0 0.0 0.00 0.00 0.00 93 1013.4
20260905093546 70 0 0.0 0.0 0.00 0.00 0.00 93 1013.2
20260905093109 70 0 0.0 0.0 0.00 0.00 0.00 93 1013.2
20260905092545 71 0 0.0 0.0 0.00 0.00 0.00 93 1013.2
20260905092045 71 0 0.0 0.0 0.00 0.00 0.00 93 1013.3
20260905091603 71 0 0.0 0.0 0.00 0.00 0.00 93 1013.3
20260905091045 71 0 0.0 0.0 0.00 0.00 0.00 93 1013.4
20260905090546 71 0 0.0 0.0 0.00 0.00 0.00 93 1013.4
20260905090055 71 0 0.0 0.0 0.00 0.00 0.00 92 1013.2
20260905085546 71 0 0.0 0.0 0.00 0.00 0.00 92 1013.3
20260905085046 71 0 0.0 0.0 0.00 0.00 0.00 92 1013.3
20260905084603 71 0 0.0 0.0 0.00 0.00 0.00 92 1013.4
20260905084049 72 0 0.0 0.0 0.00 0.00 0.00 91 1013.4
20260905083546 72 0 0.0 0.0 0.00 0.00 0.00 91 1013.6
20260905083104 72 0 0.0 0.0 0.00 0.00 0.00 91 1013.6
20260905082545 72 0 0.0 0.0 0.00 0.00 0.00 90 1013.6
20260905082045 72 0 0.0 0.0 0.00 0.00 0.00 90 1013.7
20260905081603 73 0 0.0 2.0 0.00 0.00 0.00 90 1013.7
20260905081046 73 0 0.0 2.0 0.00 0.00 0.00 89 1013.8
20260905080546 73 0 0.0 2.0 0.00 0.00 0.00 89 1013.8
20260905080056 73 0 0.0 0.0 0.00 0.00 0.00 88 1013.7
20260905075546 73 0 0.0 0.0 0.00 0.00 0.00 87 1013.6
20260905075049 74 0 0.0 0.0 0.00 0.00 0.00 87 1013.6
20260905074608 74 0 0.0 0.0 0.00 0.00 0.00 87 1013.7
20260905074046 74 0 0.0 0.0 0.00 0.00 0.00 87 1013.7
20260905073545 74 0 0.0 0.0 0.00 0.00 0.00 87 1013.6
20260905073105 74 0 0.0 1.0 0.00 0.00 0.00 86 1013.6
20260905072546 75 0 0.0 2.0 0.00 0.00 0.00 86 1013.5
20260905072044 75 303 0.0 3.0 0.00 0.00 0.00 86 1013.6
20260905071607 75 303 1.0 3.0 0.00 0.00 0.00 86 1013.8
20260905071046 75 304 1.0 3.0 0.00 0.00 0.00 85 1013.8
20260905070546 74 320 0.0 2.0 0.00 0.00 0.00 87 1013.9
20260905070100 74 0 0.0 3.0 0.00 0.00 0.00 87 1014.2
20260905065546 74 224 1.0 3.0 0.00 0.00 0.00 88 1014.4
20260905065045 74 147 0.0 2.0 0.00 0.00 0.00 89 1015.0
20260905064605 73 0 0.0 0.0 0.00 0.00 0.00 88 1014.3
20260905064045 73 0 0.0 1.0 0.00 0.00 0.00 89 1014.5
20260905063545 73 0 0.0 1.0 0.00 0.00 0.00 89 1014.8
20260905063107 73 147 0.0 1.0 0.00 0.00 0.00 89 1014.9
20260905062545 73 0 0.0 0.0 0.00 0.00 0.00 89 1014.9
20260905062045 73 0 0.0 0.0 0.00 0.00 0.00 89 1015.1
20260905061614 73 0 0.0 0.0 0.00 0.00 0.00 89 1014.9
20260905061045 73 0 0.0 0.0 0.00 0.00 0.00 90 1014.8
20260905060546 73 0 0.0 0.0 0.00 0.00 0.00 89 1015.2
20260905060100 73 0 0.0 0.0 0.00 0.00 0.00 89 1015.2
20260905055546 73 0 0.0 0.0 0.00 0.00 0.00 89 1015.3
20260905055049 72 0 0.0 0.0 0.00 0.00 0.00 90 1015.5
20260905054555 72 0 0.0 0.0 0.00 0.00 0.00 89 1015.7
20260905054047 72 0 0.0 0.0 0.00 0.00 0.00 89 1015.5
20260905053545 72 0 0.0 0.0 0.00 0.00 0.00 89 1015.6
20260905053104 73 0 0.0 0.0 0.00 0.00 0.00 89 1015.6
20260905052545 73 0 0.0 0.0 0.00 0.00 0.00 89 1015.6
20260905052045 72 0 0.0 0.0 0.00 0.00 0.00 89 1015.8
20260905051604 72 0 0.0 0.0 0.00 0.00 0.00 89 1015.7
20260905051045 72 0 0.0 0.0 0.00 0.00 0.00 88 1015.6
20260905050546 72 0 0.0 0.0 0.00 0.00 0.00 88 1015.7
20260905045545 72 0 0.0 0.0 0.00 0.00 0.00 89 1015.9
20260905045046 72 0 0.0 0.0 0.00 0.00 0.00 88 1016.0
20260905044607 72 0 0.0 0.0 0.00 0.00 0.00 88 1016.0
20260905044046 72 0 0.0 0.0 0.00 0.00 0.00 88 1016.1
20260905043545 72 0 0.0 0.0 0.00 0.00 0.00 88 1016.1
20260905043103 73 0 0.0 0.0 0.00 0.00 0.00 88 1016.1
20260905042545 73 0 0.0 0.0 0.00 0.00 0.00 88 1016.0
20260905042045 73 0 0.0 0.0 0.00 0.00 0.00 88 1016.1
20260905041613 73 0 0.0 0.0 0.00 0.00 0.00 88 1015.9
20260905041046 73 0 0.0 0.0 0.00 0.00 0.00 88 1016.1
20260905040546 72 0 0.0 0.0 0.00 0.00 0.00 88 1015.9
20260905040101 72 0 0.0 0.0 0.00 0.00 0.00 89 1015.9
20260905035546 72 0 0.0 0.0 0.00 0.00 0.00 88 1015.8
20260905035046 72 0 0.0 0.0 0.00 0.00 0.00 88 1015.8
20260905034606 72 0 0.0 0.0 0.00 0.00 0.00 88 1015.7
20260905034046 72 0 0.0 0.0 0.00 0.00 0.00 88 1015.6
20260905033549 72 0 0.0 0.0 0.00 0.00 0.00 88 1015.5
20260905033108 72 0 0.0 0.0 0.00 0.00 0.00 88 1015.4
20260905032547 72 0 0.0 0.0 0.00 0.00 0.00 88 1015.3
20260905032046 72 0 0.0 0.0 0.00 0.00 0.00 88 1015.4
20260905031601 73 0 0.0 0.0 0.00 0.00 0.00 88 1015.4
20260905031045 73 0 0.0 0.0 0.00 0.00 0.00 87 1015.4
20260905030546 73 0 0.0 0.0 0.00 0.00 0.00 87 1015.4